�N����,����,�~����,�C��,���x,�C��,����,���ϕ���,�ő�u�ԕ���,�ő厞����,���˗�,�I�_���x,�n�����x,�ő啗���N��,DTYPE
"23/06/23","00:10",0.0,20.1,91.1,1000.3,298.3,0.8,1.7,313.1,0.00,18.6,20.4,"00:02:48",1
"23/06/23","00:20",0.0,20.1,91.3,1000.3,308.3,1.5,2.2,314.8,0.00,18.7,20.5,"00:15:44",1
"23/06/23","00:30",0.2,20.1,91.3,1000.5,292.1,1.1,2.0,303.3,0.00,18.7,20.4,"00:20:40",1
"23/06/23","00:40",0.0,20.1,91.4,1000.3,312.7,1.2,1.9,312.7,0.00,18.7,20.3,"00:39:20",1
"23/06/23","00:50",0.0,20.0,91.6,1000.3,293.4,1.2,1.8,310.3,0.00,18.6,20.5,"00:47:04",1
"23/06/23","01:00",0.0,20.0,91.8,1000.5,312.9,1.5,2.2,312.6,0.00,18.7,20.5,"00:58:32",1
"23/06/23","01:10",0.0,19.9,92.1,1000.8,309.5,1.6,2.2,335.5,0.00,18.6,20.5,"01:02:00",1
"23/06/23","01:20",0.0,19.8,92.3,1000.5,294.5,0.7,1.8,320.0,0.00,18.6,20.4,"01:10:16",1
"23/06/23","01:30",0.0,19.8,92.4,1000.5,273.6,0.6,1.4,298.6,0.00,18.6,20.4,"01:28:56",1
"23/06/23","01:40",0.0,19.8,92.7,1000.8,304.5,1.5,2.5,309.4,0.00,18.6,20.4,"01:38:00",1
"23/06/23","01:50",0.0,19.8,92.8,1000.5,307.8,1.2,1.9,308.7,0.00,18.6,20.6,"01:48:16",1
"23/06/23","02:00",0.0,19.7,93.0,1000.5,318.0,1.1,1.6,320.4,0.00,18.6,20.5,"01:50:40",1
"23/06/23","02:10",0.0,19.7,93.1,1000.8,316.1,1.0,1.4,318.6,0.00,18.6,20.5,"02:03:52",1
"23/06/23","02:20",0.0,19.7,93.2,1000.5,285.9,0.7,1.0,286.3,0.00,18.6,20.3,"02:13:44",1
"23/06/23","02:30",0.0,19.7,93.4,1000.3,319.9,1.1,1.6,327.0,0.00,18.6,20.3,"02:29:28",1
"23/06/23","02:40",0.2,19.7,93.5,1000.5,323.0,1.0,1.8,342.1,0.00,18.7,20.3,"02:31:04",1
"23/06/23","02:50",0.2,19.5,93.7,1000.8,278.1,0.6,1.3,335.5,0.00,18.5,20.4,"02:40:24",1
"23/06/23","03:00",0.2,19.4,93.8,1000.5,225.5,0.7,1.0,236.5,0.00,18.4,20.3,"02:51:20",1
"23/06/23","03:10",0.0,19.4,93.9,1000.5,196.0,1.0,1.1,200.9,0.00,18.4,20.3,"03:05:12",1
"23/06/23","03:20",0.0,19.4,94.0,1000.5,193.4,0.8,1.0,183.1,0.00,18.4,20.4,"03:12:24",1
"23/06/23","03:30",0.0,19.4,94.2,1001.0,230.8,1.0,1.2,234.8,0.00,18.5,20.4,"03:29:28",1
"23/06/23","03:40",0.0,19.5,94.2,1000.8,278.4,0.6,1.1,343.9,0.00,18.6,20.4,"03:36:56",1
"23/06/23","03:50",0.0,19.5,94.4,1000.8,276.6,0.5,1.0,317.2,0.00,18.6,20.3,"03:46:16",1
"23/06/23","04:00",0.0,19.5,94.5,1001.0,268.6,0.6,1.0,236.7,0.00,18.6,20.2,"03:50:40",1
"23/06/23","04:10",0.0,19.4,94.6,1000.8,249.7,0.6,0.9,300.5,0.00,18.6,20.3,"04:00:40",1
"23/06/23","04:20",0.0,19.4,94.7,1001.2,227.3,0.6,1.0,194.3,0.00,18.6,20.2,"04:11:44",1
"23/06/23","04:30",0.0,19.4,94.9,1001.0,266.2,0.6,1.0,297.3,0.00,18.6,20.3,"04:25:04",1
"23/06/23","04:40",0.0,19.4,94.9,1001.2,277.0,0.5,1.1,319.1,0.00,18.6,20.4,"04:38:24",1
"23/06/23","04:50",0.0,19.4,95.0,1001.2,310.1,0.3,0.9,329.4,0.00,18.6,20.2,"04:46:40",1
"23/06/23","05:00",0.2,19.4,95.1,1001.2,281.7,0.5,1.4,335.3,0.00,18.6,20.2,"04:54:16",1
"23/06/23","05:10",0.0,19.3,95.2,1001.2,204.2,1.0,1.3,212.2,0.00,18.6,20.2,"05:08:08",1
"23/06/23","05:20",0.0,19.3,95.2,1001.7,202.9,0.6,1.2,202.1,0.00,18.6,20.3,"05:10:08",1
"23/06/23","05:30",0.0,19.3,95.3,1001.2,220.3,1.0,1.4,209.1,0.00,18.6,20.3,"05:22:32",1
"23/06/23","05:40",0.0,19.2,95.4,1001.5,247.7,0.3,0.5,234.6,0.00,18.5,20.3,"05:34:08",1
"23/06/23","05:50",0.0,19.3,95.5,1001.5,273.1,0.5,0.8,283.6,0.00,18.6,20.2,"05:44:56",1
"23/06/23","06:00",0.0,19.4,95.5,1001.5,303.7,0.3,0.9,322.3,0.00,18.7,20.2,"05:54:56",1
"23/06/23","06:10",0.0,19.5,95.6,1001.9,309.1,0.3,0.9,328.6,0.00,18.8,20.3,"06:06:48",1
"23/06/23","06:20",0.0,19.4,95.7,1001.7,304.3,0.3,1.0,340.8,0.00,18.7,20.3,"06:15:12",1
"23/06/23","06:30",0.0,19.5,95.8,1001.7,241.8,0.6,1.1,233.6,0.00,18.9,20.5,"06:28:32",1
"23/06/23","06:40",0.0,19.4,95.8,1002.2,253.4,0.2,0.8,243.4,0.00,18.8,20.2,"06:30:16",1
"23/06/23","06:50",0.0,19.5,95.8,1002.2,223.5,0.1,0.9,344.7,0.00,18.9,20.2,"06:49:28",1
"23/06/23","07:00",0.0,19.6,95.9,1001.9,284.6,0.2,0.5,318.7,0.00,19.0,20.2,"06:53:28",1
"23/06/23","07:10",0.0,19.7,95.9,1002.2,312.9,0.2,0.6,329.2,0.01,19.1,20.3,"07:04:16",1
"23/06/23","07:20",0.0,19.7,95.9,1002.4,290.0,0.3,0.9,339.3,0.02,19.1,20.2,"07:19:28",1
"23/06/23","07:30",0.0,19.8,96.0,1002.6,327.9,0.3,0.8,338.8,0.01,19.2,20.2,"07:27:52",1
"23/06/23","07:40",0.0,19.9,96.0,1002.4,294.4,0.1,0.4,275.8,0.02,19.3,20.2,"07:34:40",1
"23/06/23","07:50",0.0,19.8,96.0,1002.4,265.1,0.1,0.5,298.3,0.01,19.2,20.3,"07:46:00",1
"23/06/23","08:00",0.0,19.9,96.0,1002.6,312.9,0.3,0.6,317.9,0.01,19.3,20.3,"07:50:24",1
"23/06/23","08:10",0.0,20.0,96.1,1002.6,313.9,0.8,1.3,319.4,0.02,19.4,20.1,"08:07:04",1
"23/06/23","08:20",0.0,20.0,96.2,1002.9,331.2,1.0,1.3,330.4,0.03,19.4,20.4,"08:15:36",1
"23/06/23","08:30",0.0,20.3,96.2,1002.9,323.0,0.7,1.6,324.4,0.07,19.7,20.2,"08:23:04",1
"23/06/23","08:40",0.0,20.4,96.1,1002.9,250.5,0.5,0.8,206.1,0.09,19.8,20.2,"08:33:36",1
"23/06/23","08:50",0.0,20.5,96.1,1003.1,282.7,0.7,1.2,349.0,0.04,19.9,20.2,"08:48:40",1
"23/06/23","09:00",0.0,20.5,96.2,1002.9,315.0,1.0,1.4,315.2,0.04,19.9,20.3,"08:56:08",1
"23/06/23","09:10",0.0,20.7,96.1,1002.6,266.0,0.5,1.1,243.9,0.07,20.1,20.3,"09:06:56",1
"23/06/23","09:20",0.0,20.9,96.0,1003.1,255.8,0.3,0.8,258.5,0.08,20.3,20.2,"09:10:16",1
"23/06/23","09:30",0.0,21.1,95.9,1002.6,255.7,0.5,0.9,137.6,0.12,20.5,20.2,"09:27:12",1
"23/06/23","09:40",0.0,21.5,96.0,1003.1,308.7,0.2,1.1,313.9,0.11,20.9,20.2,"09:35:12",1
"23/06/23","09:50",0.0,21.4,95.9,1003.1,274.0,0.3,0.8,355.5,0.09,20.8,20.3,"09:48:56",1
"23/06/23","10:00",0.0,21.4,95.9,1003.1,329.9,0.8,2.1,314.8,0.09,20.8,20.4,"09:59:12",1
"23/06/23","10:10",0.0,21.6,96.0,1003.1,327.9,0.7,2.0,340.2,0.10,21.0,20.2,"10:03:20",1
"23/06/23","10:20",0.0,21.6,95.9,1002.6,303.0,0.7,2.0,345.9,0.15,21.0,20.3,"10:18:40",1
"23/06/23","10:30",0.0,22.2,95.7,1002.9,322.8,0.6,2.0,306.7,0.27,21.5,20.3,"10:29:12",1
"23/06/23","10:40",0.0,22.0,95.4,1002.9,352.9,1.1,2.7,346.0,0.22,21.3,20.3,"10:37:12",1
"23/06/23","10:50",0.0,22.5,95.2,1002.9,272.3,0.6,1.7,310.1,0.29,21.7,20.5,"10:47:20",1
"23/06/23","11:00",0.0,22.7,94.6,1002.9,344.4,1.0,2.4,349.3,0.34,21.8,20.3,"10:56:56",1
"23/06/23","11:10",0.0,23.3,93.2,1002.9,16.9,0.6,1.7,341.1,0.33,22.2,20.5,"11:04:48",1
"23/06/23","11:20",0.0,23.5,92.2,1002.4,248.8,0.7,1.9,235.3,0.38,22.2,20.4,"11:18:40",1
"23/06/23","11:30",0.0,23.7,91.1,1002.9,224.1,0.6,1.4,290.2,0.20,22.2,20.5,"11:20:24",1
"23/06/23","11:40",0.0,23.8,90.3,1002.2,220.3,0.6,1.8,241.5,0.19,22.2,20.5,"11:34:40",1
"23/06/23","11:50",0.0,23.9,88.3,1002.6,219.6,1.2,2.1,225.7,0.33,21.9,20.6,"11:44:24",1
"23/06/23","12:00",0.0,24.9,86.1,1001.9,159.0,0.6,1.7,244.9,0.47,22.5,20.5,"11:56:56",1
"23/06/23","12:10",0.0,25.2,82.9,1001.7,163.7,1.0,2.2,103.1,0.33,22.1,20.6,"12:00:48",1
"23/06/23","12:20",0.0,24.9,81.6,1001.7,185.2,1.5,3.1,137.1,0.30,21.6,20.6,"12:11:20",1
"23/06/23","12:30",0.0,25.3,81.1,1001.5,142.6,1.0,2.0,130.2,0.27,21.9,20.6,"12:26:48",1
"23/06/23","12:40",0.0,25.5,79.8,1001.7,110.0,0.6,1.6,125.8,0.23,21.8,20.8,"12:35:36",1
"23/06/23","12:50",0.0,25.6,78.1,1001.7,224.6,0.6,1.3,149.2,0.19,21.5,20.6,"12:42:40",1
"23/06/23","13:00",0.0,25.7,77.9,1001.5,204.7,0.5,1.7,225.3,0.17,21.6,20.6,"12:52:48",1
"23/06/23","13:10",0.0,25.9,77.6,1001.9,215.4,0.3,1.2,241.5,0.17,21.7,20.9,"13:06:24",1
"23/06/23","13:20",0.0,26.3,76.7,1001.9,283.4,0.5,1.3,18.7,0.24,21.9,20.8,"13:16:32",1
"23/06/23","13:30",0.0,26.6,75.4,1001.9,184.9,0.7,2.0,195.1,0.27,21.9,20.9,"13:25:36",1
"23/06/23","13:40",0.0,26.4,74.1,1001.7,195.5,1.6,3.2,210.4,0.35,21.5,20.7,"13:39:44",1
"23/06/23","13:50",0.0,27.2,74.3,1001.9,144.7,1.0,3.4,129.7,0.41,22.3,20.9,"13:40:02",1
"23/06/23","14:00",0.0,27.0,73.8,1001.9,158.7,1.3,3.1,207.6,0.33,22.0,20.9,"13:53:36",1
"23/06/23","14:10",0.0,27.9,74.4,1001.9,164.2,0.8,2.2,210.1,0.41,23.0,21.2,"14:01:20",1
"23/06/23","14:20",0.0,27.8,70.1,1002.2,183.7,1.0,3.1,190.4,0.39,21.9,21.0,"14:12:48",1
"23/06/23","14:30",0.0,27.1,68.2,1002.2,239.4,1.1,2.5,237.3,0.17,20.8,21.2,"14:25:44",1
"23/06/23","14:40",0.0,27.2,69.1,1001.9,251.4,0.7,2.5,217.1,0.27,21.1,21.1,"14:38:48",1
"23/06/23","14:50",0.0,27.5,68.4,1001.9,148.1,0.6,1.6,130.7,0.26,21.2,21.1,"14:44:24",1
"23/06/23","15:00",0.0,27.7,68.0,1001.9,187.8,1.2,3.5,231.4,0.34,21.3,21.1,"14:55:28",1
"23/06/23","15:10",0.0,27.3,69.8,1001.7,192.0,1.2,2.4,229.0,0.20,21.3,21.3,"15:00:40",1
"23/06/23","15:20",0.0,27.1,69.7,1001.2,182.6,1.2,3.1,205.1,0.17,21.1,21.2,"15:19:36",1
"23/06/23","15:30",0.0,27.0,68.6,1001.2,332.0,0.8,2.9,339.1,0.10,20.8,21.3,"15:29:36",1
"23/06/23","15:40",0.0,26.8,68.9,1000.8,342.1,1.1,2.0,330.2,0.07,20.7,21.5,"15:30:08",1
"23/06/23","15:50",0.0,26.8,69.5,1000.8,287.2,1.0,2.0,234.7,0.10,20.8,21.3,"15:47:44",1
"23/06/23","16:00",0.0,27.2,69.8,1000.8,216.6,0.6,1.6,218.4,0.13,21.2,21.5,"15:50:08",1
"23/06/23","16:10",0.0,27.3,68.4,1000.8,192.2,0.7,1.7,177.6,0.07,21.0,21.3,"16:04:40",1
"23/06/23","16:20",0.0,26.8,67.6,1000.8,212.1,0.7,2.1,233.0,0.04,20.3,21.5,"16:14:48",1
"23/06/23","16:30",0.0,27.1,71.1,1001.0,335.8,0.8,2.1,353.8,0.02,21.5,21.6,"16:25:28",1
"23/06/23","16:40",0.0,26.1,75.3,1001.5,310.0,1.0,2.2,351.8,0.01,21.4,21.6,"16:31:12",1
"23/06/23","16:50",0.0,25.6,77.2,1001.9,320.5,1.6,3.5,350.9,0.00,21.4,21.5,"16:46:00",1
"23/06/23","17:00",0.0,25.3,78.8,1001.7,279.3,0.7,1.4,264.2,0.00,21.4,21.4,"16:59:12",1
"23/06/23","17:10",0.0,25.0,79.8,1001.7,322.5,1.5,2.5,335.3,0.00,21.3,21.4,"17:05:20",1
"23/06/23","17:20",0.0,24.8,80.3,1002.2,331.7,1.5,2.1,348.9,0.00,21.2,21.5,"17:10:48",1
"23/06/23","17:30",0.0,24.7,80.2,1002.2,327.8,1.6,2.7,319.1,0.00,21.1,21.5,"17:28:48",1
"23/06/23","17:40",0.0,24.6,79.8,1002.4,319.8,1.8,4.1,313.4,0.00,20.9,21.3,"17:30:02",1
"23/06/23","17:50",0.0,24.2,81.3,1002.9,344.3,2.1,3.6,353.5,0.00,20.8,21.6,"17:43:20",1
"23/06/23","18:00",0.0,23.6,83.4,1002.6,341.0,2.1,5.8,342.5,0.01,20.7,21.4,"17:55:20",1
"23/06/23","18:10",0.0,23.5,85.0,1002.6,337.2,1.7,4.0,318.1,0.05,20.9,21.5,"18:08:56",1
"23/06/23","18:20",0.0,23.7,85.2,1003.1,322.7,2.1,4.0,307.4,0.09,21.1,21.6,"18:13:52",1
"23/06/23","18:30",0.0,23.8,85.0,1003.1,322.6,1.8,3.1,337.3,0.05,21.2,21.5,"18:26:56",1
"23/06/23","18:40",0.0,23.8,85.1,1003.1,318.4,1.5,2.7,305.0,0.02,21.2,21.5,"18:36:32",1
"23/06/23","18:50",0.0,23.7,85.1,1003.6,297.4,1.3,2.9,328.3,0.01,21.1,21.4,"18:40:48",1
"23/06/23","19:00",0.0,23.7,85.2,1004.1,327.7,1.3,2.9,341.7,0.02,21.1,21.5,"18:56:32",1
"23/06/23","19:10",0.0,23.7,85.2,1003.8,0.1,1.1,2.1,1.7,0.01,21.1,21.4,"19:09:04",1
"23/06/23","19:20",0.0,23.7,85.3,1004.1,342.8,1.2,2.0,341.4,0.01,21.1,21.4,"19:19:28",1
"23/06/23","19:30",0.0,23.5,85.7,1003.8,359.6,1.0,2.0,342.3,0.00,21.0,21.4,"19:20:24",1
"23/06/23","19:40",0.0,23.3,86.2,1004.1,332.9,1.3,2.2,339.6,0.00,20.9,21.3,"19:35:28",1
"23/06/23","19:50",0.0,23.1,86.8,1004.3,333.5,1.6,2.7,347.3,0.00,20.8,21.3,"19:42:08",1
"23/06/23","20:00",0.0,22.9,87.3,1004.5,332.2,1.7,2.8,336.3,0.00,20.7,21.4,"19:53:44",1
"23/06/23","20:10",0.0,22.8,87.7,1004.1,338.6,1.0,2.0,342.0,0.00,20.7,21.5,"20:00:08",1
"23/06/23","20:20",0.0,22.7,88.2,1004.1,332.8,1.2,2.4,322.1,0.00,20.7,21.2,"20:10:02",1
"23/06/23","20:30",0.0,22.5,88.8,1004.3,319.1,1.6,2.4,322.9,0.00,20.6,21.2,"20:20:16",1
"23/06/23","20:40",0.0,22.4,89.2,1004.3,331.0,1.3,2.5,358.8,0.00,20.6,21.5,"20:38:00",1
"23/06/23","20:50",0.0,22.4,89.6,1004.5,328.7,1.5,2.5,330.0,0.00,20.6,21.7,"20:44:00",1
"23/06/23","21:00",0.0,22.3,90.0,1005.0,319.7,1.3,2.8,316.3,0.00,20.6,21.4,"20:56:16",1
"23/06/23","21:10",0.0,22.3,90.2,1005.2,330.4,1.7,3.4,342.7,0.00,20.7,21.4,"21:03:28",1
"23/06/23","21:20",0.0,22.3,90.3,1005.0,332.0,2.0,3.1,343.6,0.00,20.7,21.5,"21:19:28",1
"23/06/23","21:30",0.0,22.2,90.4,1005.0,336.4,1.7,3.1,339.2,0.00,20.6,21.5,"21:27:44",1
"23/06/23","21:40",0.0,22.2,90.5,1005.2,335.7,1.7,2.6,341.3,0.00,20.6,21.4,"21:34:00",1
"23/06/23","21:50",0.0,22.1,90.6,1005.7,333.6,2.3,3.6,325.2,0.00,20.5,21.3,"21:43:04",1
"23/06/23","22:00",0.0,22.1,90.6,1005.7,332.7,1.6,3.1,336.8,0.00,20.5,21.3,"21:50:56",1
"23/06/23","22:10",0.0,22.1,90.7,1005.7,338.7,1.6,3.1,326.0,0.00,20.5,21.5,"22:05:44",1
"23/06/23","22:20",0.0,22.1,90.7,1006.0,344.8,1.1,2.0,346.9,0.00,20.5,21.4,"22:15:28",1
"23/06/23","22:30",0.0,22.1,90.8,1006.0,340.3,1.0,2.6,339.0,0.00,20.6,21.4,"22:21:52",1
"23/06/23","22:40",0.0,22.1,90.8,1006.2,353.2,1.1,2.0,344.4,0.00,20.6,21.3,"22:37:28",1
"23/06/23","22:50",0.0,22.3,90.9,1006.2,336.0,1.7,2.5,328.8,0.00,20.8,21.3,"22:45:20",1
"23/06/23","23:00",0.2,22.3,90.9,1006.2,328.5,1.1,2.1,336.7,0.00,20.8,21.3,"22:50:08",1
"23/06/23","23:10",0.0,22.1,91.0,1006.0,311.0,1.2,2.7,332.6,0.00,20.6,21.2,"23:03:04",1
"23/06/23","23:20",0.0,22.1,91.3,1006.2,321.8,1.2,2.5,338.4,0.00,20.7,21.2,"23:19:12",1
"23/06/23","23:30",0.0,21.9,91.4,1006.0,330.2,1.5,2.9,342.6,0.00,20.5,21.2,"23:22:16",1
"23/06/23","23:40",0.0,21.8,91.6,1005.7,324.0,1.3,2.4,344.1,0.00,20.4,21.3,"23:33:04",1
"23/06/23","23:50",0.0,21.8,91.8,1006.4,313.3,0.5,1.1,324.9,0.00,20.4,21.2,"23:49:12",1
"23/06/23","24:00",0.0,21.8,91.9,1006.4,325.8,0.7,1.4,334.6,0.00,20.5,21.2,"23:58:56",1
